軌道要素
The following orbital elements are taken from MPC 61994:
Epoch 2007 Mar. 1.0 TT = JDT 2454160.5
T 2007 Feb. 11.3901 TT MPC
q 3.818343 (2000.0) P Q
n 0.0519331 Peri. 83.5777 +0.0849110 -0.9963150
a 7.114968 Node 1.6990 +0.6735493 +0.0484415
e 0.463337 Incl. 24.0981 +0.7342489 +0.0707803
P 19.0
From 317 observations 2005 Sept. 23-2008 Feb. 13, mean residual 0".7.
|